Location: Nederland
(52.1000°N, 5.2000°E)
Time: 23:03:00
(UTC+02:00)

X-37B - Visible Passes

Search period start: 10 August 2022 00:00
Search period end: 20 August 2022 00:00
Orbit: 328 x 343 km, 45.0° (Epoch: 27 July)

Date Brightness Start Highest point End Pass type
(mag) Time Alt. Az. Time Alt. Az. Time Alt. Az.
10 Aug 2.1 04:47:02 17° S 04:47:42 18° S 04:49:46 10° SE visible
11 Aug 2.0 05:06:31 15° SW 05:07:52 20° S 05:10:06 10° SE visible
12 Aug 3.0 03:54:51 12° SE 03:54:51 12° SE 03:55:12 10° SE visible
12 Aug 2.1 05:26:05 11° SW 05:28:03 19° S 05:30:10 10° SE visible
13 Aug 2.5 04:14:32 16° SE 04:14:32 16° SE 04:15:32 10° SE visible
14 Aug 2.3 04:34:23 16° SSE 04:34:23 16° SSE 04:35:36 10° SE visible
15 Aug 2.5 04:54:26 13° S 04:54:26 13° S 04:55:17 10° SSE visible
